Terminal Aerodrome Forecast
Issued by NWS

Home | Current Version | Previous Version | Text Only | Print | Product List | Glossary On
Versions: 1 2 3 4 5 6 7 8 9 10 11 12 13 14 15 16 17 18 19 20 21 22 23 24
912
FTUS46 KMTR 250419 AAA
TAFMRY
TAF AMD
KMRY 250419Z 2504/2524 19005KT P6SM SKC
      TEMPO 2504/2506 BKN010
     FM250600 VRB03KT P6SM OVC008
      TEMPO 2508/2512 00000KT 3SM BR OVC003
     FM251800 29004KT P6SM SKC
     FM252100 24012KT P6SM SKC=

USA.gov is the U.S. government's official web portal to all federal, state and local government web resources and services.